Location: Fernhill
(41.0167°S, 175.6333°E)
Time: 23:45:56
(UTC+00:00)

Cosmos 1544 Rocket - Pass Details

Date: 08 November 2025
Orbit: 599 x 622 km, 82.5° (Epoch: 04 December)

Event Time Altitude Azimuth Distance (km) Brightness Sun altitude
Rises 07:58:56 0° 181° (S) 2,914 7.5 -9.6°
Reaches altitude 10° 08:01:18 10° 173° (S) 1,996 6.5 -10.0°
Maximum altitude 08:05:29 41° 102° (ESE) 898 4.1 -10.6°
Enters shadow 08:08:57 14° 35° (NE) 1,718 5.3 -11.2°
